Location: Augustenthal
(51.7167°N, 10.2833°E)
Time: 15:14:07
(UTC+00:00)

ISS - Pass Details

Date: 24 September 2021
Orbit: 418 x 423 km, 51.6° (Epoch: 21 October)

Event Time Altitude Azimuth Distance (km) Brightness Sun altitude
Rises 20:32:48 0° 282° (WNW) 2,369 0.9 -29.3°
Reaches altitude 10° 20:34:55 10° 278° (W) 1,504 -0.3 -29.5°
Enters shadow 20:35:10 12° 277° (W) 1,404 -0.5 -29.6°
